This demonstration page uses our WeatherBlox Daily Observations layout. Learn more.

Left ArrowRight Arrow

38.80484, -77.04692

Hourly Observations for September 29, 2021

Temp ( °F °C ) Dew Point ( °F °C ) Humidity (%) Winds ( mph kmh ) Pressure ( in mb ) Visibility ( mi km ) Precip ( " mm )
12:52 am 00:52 Mostly Cloudy 69 20.6 60 15.6 73 73 NNE 14 22 29.94 1014 10 16 0.00 0.00
1:52 am 01:52 Mostly Cloudy 67 19.4 58 14.4 73 73 N 9 15 29.94 1014 10 16 0.00 0.00
2:52 am 02:52 Mostly Cloudy 67 19.4 56 13.3 68 68 N 9 15 29.95 1014 10 16 0.00 0.00
3:52 am 03:52 Mostly Cloudy 66 18.9 57 13.9 73 73 N 10 17 29.96 1014 10 16 0.00 0.00
4:52 am 04:52 Mostly Cloudy 65 18.3 53 11.7 66 66 NNE 13 20 29.99 1016 10 16 0.00 0.00
5:52 am 05:52 Partly Cloudy 63 17.2 53 11.7 70 70 NNE 16 26 30.01 1016 10 16 0.00 0.00
6:52 am 06:52 Partly Cloudy 61 16.1 52 11.1 72 72 N 12 19 30.04 1017 10 16 0.00 0.00
7:52 am 07:52 Mostly Cloudy 61 16.1 51 10.6 70 70 NNW 12 19 30.06 1018 10 16 0.00 0.00
8:52 am 08:52 Mostly Cloudy 61 16.1 47 8.3 60 60 N 9 15 30.07 1018 10 16 0.00 0.00
9:52 am 09:52 Mostly Cloudy 63 17.2 46 7.8 54 54 N 9 15 30.08 1019 10 16 0.00 0.00
10:52 am 10:52 Partly Cloudy 67 19.4 45 7.2 45 45 NNE 12 19 30.09 1019 10 16 0.00 0.00
11:52 am 11:52 Mostly Sunny 68 20 41 5 38 38 NNE 9 15 30.08 1019 10 16 0.00 0.00
12:52 pm 12:52 Mostly Sunny 71 21.7 43 6.1 36 36 N 8 13 30.06 1018 10 16 0.00 0.00
1:52 pm 13:52 Mostly Sunny 72 22.2 43 6.1 35 35 NNW 6 9 30.04 1017 10 16 0.00 0.00
2:52 pm 14:52 Mostly Sunny 72 22.2 43 6.1 35 35 WNW 5 7 30.03 1017 10 16 0.00 0.00
3:52 pm 15:52 Mostly Sunny 73 22.8 44 6.7 35 35 WSW 3 6 30.02 1017 10 16 0.00 0.00
4:52 pm 16:52 Mostly Sunny 73 22.8 43 6.1 34 34 NW 5 7 30.02 1017 10 16 0.00 0.00
5:52 pm 17:52 Mostly Sunny 71 21.7 45 7.2 39 39 NNW 8 13 30.03 1017 10 16 0.00 0.00
6:52 pm 18:52 Mostly Sunny 69 20.6 45 7.2 42 42 NW 7 11 30.05 1018 10 16 0.00 0.00
7:52 pm 19:52 Clear 68 20 45 7.2 44 44 NW 8 13 30.06 1018 10 16 0.00 0.00
8:52 pm 20:52 Clear 65 18.3 50 10 59 59 Calm 30.07 1018 10 16 0.00 0.00
9:52 pm 21:52 Clear 64 17.8 49 9.4 58 58 Calm 30.08 1019 10 16 0.00 0.00
10:52 pm 22:52 Partly Cloudy 64 17.8 47 8.3 54 54 Calm 30.09 1019 10 16 0.00 0.00
11:52 pm 23:52 Partly Cloudy 59 15 50 10 72 72 SW 3 6 30.09 1019 10 16 0.00 0.00

Powered by AerisWeather